Regional Weather Roundup
Issued by NWS

Home | Current Version | Previous Version | Graphics & Text | Print | Product List | Glossary On
Versions: 1 2 3 4 5 6 7 8 9 10 11 12 13 14 15 16 17 18 19 20 21 22 23 24 25 26 27 28 29 30 31 32 33 34 35 36 37 38 39 40 41 42 43 44 45 46 47 48 49 50
000
ASUS43 KFSD 220902
RWRSD

WEATHER ROUNDUP FOR SOUTH DAKOTA
NATIONAL WEATHER SERVICE SIOUX FALLS SD
300 AM CST WED FEB 22 2017

NOTE: "FAIR" INDICATES FEW OR NO CLOUDS BELOW 12,000 FEET WITH NO
SIGNIFICANT WEATHER AND/OR OBSTRUCTIONS TO VISIBILITY.


SDZ001>005-009-010-012>017-221000-
NORTHWEST AND NORTH CENTRAL SOUTH DAKOTA

CITY           SKY/WX    TMP DP  RH WIND       PRES   REMARKS
BUFFALO          N/A     39  34  82 N8        29.58S
FAITH            N/A     42  38  85 S12       29.61S
MOBRIDGE       CLOUDY    39  33  79 N6        29.59F
$$

SDZ012>016-024>037-041>051-057-063-072>074-221000-
SOUTHWEST AND SOUTH CENTRAL SOUTH DAKOTA

CITY           SKY/WX    TMP DP  RH WIND       PRES   REMARKS
RAPID CTY ARPT CLOUDY    43  36  76 W8        29.68F
PIERRE         CLOUDY    43  37  79 W12       29.64F
CUSTER         CLOUDY    36  30  79 W7        29.76R
ELLSWORTH AFB  CLOUDY    44  37  79 SW13      29.68R
PHILIP         CLOUDY    51  40  65 SW10      29.62F
PINE RIDGE     LGT RAIN  46  40  79 NW10      29.78R
SPEARFISH      FAIR      48  28  46 W16       29.70R
WINNER         FAIR      47  35  63 SW10      29.66S
$$

SDZ004>011-016>023-039-040-221000-
NORTHEAST SOUTH DAKOTA

CITY           SKY/WX    TMP DP  RH WIND       PRES   REMARKS
ABERDEEN       CLOUDY    37  33  85 N5        29.61R
WATERTOWN      PTCLDY    42  40  92 NW3       29.59S
BROOKINGS      CLOUDY    41  37  86 SE3       29.59F
SISSETON         N/A     36  35  96 S5        29.58F
$$

SDZ017-020-022-023-036>040-048>070-221000-
SOUTHEAST SOUTH DAKOTA

CITY           SKY/WX    TMP DP  RH WIND       PRES   REMARKS
SIOUX FALLS    PTCLDY    40  37  89 S6        29.63R
HURON          CLOUDY    40  39  97 S3        29.60S
CHAMBERLAIN    PTCLDY    45  39  78 W5        29.65S
MITCHELL       PTCLDY    41  35  79 S7        29.62S
YANKTON        CLEAR     54  34  47 W12       29.65S
$$

ABBREVIATIONS USED IN REMARKS
   TC - TEMPERATURE IN CELSIUS
  WCI - WIND CHILL INDEX
   HX - HEAT INDEX
  VSB - VISIBILITY





USA.gov is the U.S. government's official web portal to all federal, state and local government web resources and services.